,,Stat6,,Stat2,,Stat8,,Stat9,,Stat10,,Wind1,,Wind1,
time,status,PA1M_AVG,status,PR1M_SUM,status,RH1M_AVG,status,SR1M_AVG,status,TA1M_AVG,status,W1dAve1m,status,W1sAve1m,
2008-12-30, 00:00:00,VALID,917.182,VALID,0,VALID,100,VALID,-0.0849042,VALID,20.0345,VALID,38,VALID,0,
2008-12-30, 00:01:00,VALID,917.168,VALID,0,VALID,100,VALID,-0.0509425,VALID,20.0215,VALID,23,VALID,0,
2008-12-30, 00:02:00,VALID,917.124,VALID,0,VALID,100,VALID,-0.0169808,VALID,20.0186,VALID,43,VALID,0,
2008-12-30, 00:03:00,VALID,917.063,VALID,0,VALID,100,VALID,-0.0509425,VALID,20.0153,VALID,20,VALID,0.145703,
2008-12-30, 00:04:00,VALID,917.043,VALID,0,VALID,100,VALID,-0.0509425,VALID,20.0156,VALID,299,VALID,0.0012429,
2008-12-30, 00:05:00,VALID,917.039,VALID,0,VALID,100,VALID,-0.0339617,VALID,20.0118,VALID,21,VALID,0,
2008-12-30, 00:06:00,VALID,917.028,VALID,0,VALID,100,VALID,-0.101885,VALID,19.9991,VALID,30,VALID,0,
2008-12-30, 00:07:00,VALID,917.01,VALID,0,VALID,100,VALID,-0.0339617,VALID,19.9958,VALID,42,VALID,0.235973,
2008-12-30, 00:08:00,VALID,916.969,VALID,0,VALID,100,VALID,-0.0339617,VALID,19.9956,VALID,27,VALID,0.251002,
2008-12-30, 00:09:00,VALID,916.979,VALID,0,VALID,100,VALID,-0.0679233,VALID,19.9921,VALID,27,VALID,0,
2008-12-30, 00:10:00,VALID,916.994,VALID,0,VALID,100,VALID,-0.0509425,VALID,19.9921,VALID,19,VALID,0,
2008-12-30, 00:11:00,VALID,917.017,VALID,0,VALID,100,VALID,-0.0509425,VALID,19.9983,VALID,19,VALID,0,
2008-12-30, 00:12:00,VALID,917.019,VALID,0,VALID,100,VALID,0,VALID,19.9986,VALID,19,VALID,0,
2008-12-30, 00:13:00,VALID,917.031,VALID,0,VALID,100,VALID,-0.0169808,VALID,20.0018,VALID,19,VALID,0,
2008-12-30, 00:14:00,VALID,917.006,VALID,0,VALID,100,VALID,-0.0339617,VALID,19.9956,VALID,19,VALID,0,
2008-12-30, 00:15:00,VALID,916.979,VALID,0,VALID,100,VALID,-0.0509425,VALID,20.0118,VALID,28,VALID,0,
2008-12-30, 00:16:00,VALID,916.964,VALID,0,VALID,100,VALID,-0.0509425,VALID,20.0051,VALID,35,VALID,0,
2008-12-30, 00:17:00,VALID,916.961,VALID,0,VALID,100,VALID,-0.0339617,VALID,20.0213,VALID,35,VALID,0,
2008-12-30, 00:18:00,VALID,916.991,VALID,0,VALID,100,VALID,-0.0169808,VALID,20.021,VALID,31,VALID,0,
2008-12-30, 00:19:00,VALID,917.006,VALID,0,VALID,100,VALID,-0.101885,VALID,20.031,VALID,31,VALID,0,
2008-12-30, 00:20:00,VALID,917.006,VALID,0,VALID,100,VALID,-0.0339617,VALID,20.0345,VALID,31,VALID,0,
2008-12-30, 00:21:00,VALID,916.997,VALID,0,VALID,100,VALID,-0.0169808,VALID,20.0208,VALID,31,VALID,0,
2008-12-30, 00:22:00,VALID,916.986,VALID,0,VALID,100,VALID,-0.0169808,VALID,20.0243,VALID,31,VALID,0,
2008-12-30, 00:23:00,VALID,916.961,VALID,0,VALID,100,VALID,-0.0169808,VALID,20.0308,VALID,31,VALID,0,
2008-12-30, 00:24:00,VALID,916.955,VALID,0,VALID,100,VALID,-0.0169808,VALID,20.031,VALID,28,VALID,0,
2008-12-30, 00:25:00,VALID,916.948,VALID,0,VALID,100,VALID,-0.0169808,VALID,20.0078,VALID,26,VALID,0,
2008-12-30, 00:26:00,VALID,916.948,VALID,0,VALID,100,VALID,-0.0509425,VALID,20.0151,VALID,26,VALID,0,
2008-12-30, 00:27:00,VALID,916.939,VALID,0,VALID,100,VALID,-0.0169808,VALID,20.0113,VALID,23,VALID,0,
2008-12-30, 00:28:00,VALID,916.929,VALID,0,VALID,100,VALID,-0.0679233,VALID,20.0113,VALID,22,VALID,0,
2008-12-30, 00:29:00,VALID,916.914,VALID,0,VALID,100,VALID,-0.0339617,VALID,20.0118,VALID,56,VALID,0,
2008-12-30, 00:30:00,VALID,916.916,VALID,0,VALID,100,VALID,-0.0679233,VALID,20.0283,VALID,156,VALID,0,
2008-12-30, 00:31:00,VALID,916.903,VALID,0,VALID,100,VALID,-0.0849042,VALID,20.0313,VALID,118,VALID,0,
2008-12-30, 00:32:00,VALID,916.883,VALID,0,VALID,100,VALID,-0.0679233,VALID,20.0478,VALID,49,VALID,0,
2008-12-30, 00:33:00,VALID,916.876,VALID,0,VALID,100,VALID,-0.0169808,VALID,20.0572,VALID,49,VALID,0,
2008-12-30, 00:34:00,VALID,916.869,VALID,0,VALID,100,VALID,-0.0509425,VALID,20.0802,VALID,49,VALID,0,
2008-12-30, 00:35:00,VALID,916.866,VALID,0,VALID,100,VALID,-0.0339617,VALID,20.0829,VALID,49,VALID,0,
2008-12-30, 00:36:00,VALID,916.841,VALID,0,VALID,100,VALID,-0.0339617,VALID,20.0864,VALID,49,VALID,0,
2008-12-30, 00:37:00,VALID,916.823,VALID,0,VALID,100,VALID,-0.0849042,VALID,20.077,VALID,34,VALID,0,
2008-12-30, 00:38:00,VALID,916.805,VALID,0,VALID,100,VALID,-0.0169808,VALID,20.07,VALID,17,VALID,0.0536458,
2008-12-30, 00:39:00,VALID,916.797,VALID,0,VALID,100,VALID,-0.0509425,VALID,20.0572,VALID,8,VALID,0.000173611,
2008-12-30, 00:40:00,VALID,916.78,VALID,0,VALID,100,VALID,-0.0509425,VALID,20.0607,VALID,22,VALID,0.000762195,
2008-12-30, 00:41:00,VALID,916.809,VALID,0,VALID,100,VALID,-0.0509425,VALID,20.041,VALID,32,VALID,0.0012718,
2008-12-30, 00:42:00,VALID,916.836,VALID,0,VALID,100,VALID,-0.0339617,VALID,20.0343,VALID,37,VALID,0.000190549,
2008-12-30, 00:43:00,VALID,916.862,VALID,0,VALID,100,VALID,0,VALID,20.0413,VALID,70,VALID,0.0596418,
2008-12-30, 00:44:00,VALID,916.846,VALID,0,VALID,100,VALID,-0.0679233,VALID,20.0213,VALID,46,VALID,0.00121528,
2008-12-30, 00:45:00,VALID,916.823,VALID,0,VALID,100,VALID,-0.0509425,VALID,20.025,VALID,30,VALID,0.0466933,
2008-12-30, 00:46:00,VALID,916.817,VALID,0,VALID,100,VALID,-0.0679233,VALID,20.0083,VALID,33,VALID,0.00223214,
2008-12-30, 00:47:00,VALID,916.817,VALID,0,VALID,100,VALID,-0.0679233,VALID,20.0283,VALID,26,VALID,0.0874619,
2008-12-30, 00:48:00,VALID,916.832,VALID,0,VALID,100,VALID,-0.0849042,VALID,20.0215,VALID,25,VALID,0,
2008-12-30, 00:49:00,VALID,916.824,VALID,0,VALID,100,VALID,-0.0339617,VALID,20.0218,VALID,23,VALID,0,
2008-12-30, 00:50:00,VALID,916.819,VALID,0,VALID,100,VALID,-0.0849042,VALID,20.0116,VALID,23,VALID,0,
2008-12-30, 00:51:00,VALID,916.81,VALID,0,VALID,100,VALID,-0.0679233,VALID,20.0053,VALID,176,VALID,0,
2008-12-30, 00:52:00,VALID,916.778,VALID,0,VALID,100,VALID,-0.0339617,VALID,20.0081,VALID,169,VALID,0,
2008-12-30, 00:53:00,VALID,916.751,VALID,0,VALID,100,VALID,0.0169808,VALID,19.9968,VALID,49,VALID,0,
2008-12-30, 00:54:00,VALID,916.788,VALID,0,VALID,100,VALID,0.0169808,VALID,19.9968,VALID,29,VALID,0,
2008-12-30, 00:55:00,VALID,916.782,VALID,0,VALID,100,VALID,0.0169808,VALID,19.9876,VALID,34,VALID,0,
2008-12-30, 00:56:00,VALID,916.791,VALID,0,VALID,100,VALID,0,VALID,19.9781,VALID,28,VALID,0,
2008-12-30, 00:57:00,VALID,916.788,VALID,0,VALID,100,VALID,0.0169808,VALID,19.9813,VALID,13,VALID,0,
2008-12-30, 00:58:00,VALID,916.772,VALID,0,VALID,100,VALID,0,VALID,19.9811,VALID,11,VALID,0,
2008-12-30, 00:59:00,VALID,916.744,VALID,0,VALID,100,VALID,0.0169808,VALID,19.9749,VALID,12,VALID,0,
2008-12-30, 01:00:00,VALID,916.724,VALID,0,VALID,100,VALID,0,VALID,19.9584,VALID,24,VALID,0.10119,
2008-12-30, 01:01:00,VALID,916.716,VALID,0,VALID,100,VALID,0.0169808,VALID,19.9524,VALID,38,VALID,0.119336,
2008-12-30, 01:02:00,VALID,916.721,VALID,0,VALID,100,VALID,-0.0169808,VALID,19.9357,VALID,32,VALID,0.0912642,
2008-12-30, 01:03:00,VALID,916.711,VALID,0,VALID,100,VALID,0,VALID,19.9229,VALID,47,VALID,0,
2008-12-30, 01:04:00,VALID,916.682,VALID,0,VALID,100,VALID,0,VALID,19.9297,VALID,36,VALID,0,
2008-12-30, 01:05:00,VALID,916.659,VALID,0,VALID,100,VALID,0.0509425,VALID,19.9124,VALID,34,VALID,0.175,
2008-12-30, 01:06:00,VALID,916.643,VALID,0,VALID,100,VALID,0.0339617,VALID,19.903,VALID,22,VALID,0.00798611,
2008-12-30, 01:07:00,VALID,916.6,VALID,0,VALID,100,VALID,0,VALID,19.8773,VALID,24,VALID,0,
2008-12-30, 01:08:00,VALID,916.58,VALID,0,VALID,100,VALID,-0.0849042,VALID,19.878,VALID,30,VALID,0,
2008-12-30, 01:09:00,VALID,916.565,VALID,0,VALID,100,VALID,-0.0849042,VALID,19.8845,VALID,41,VALID,0,
2008-12-30, 01:10:00,VALID,916.543,VALID,0,VALID,100,VALID,-0.0849042,VALID,19.8815,VALID,147,VALID,0,
2008-12-30, 01:11:00,VALID,916.521,VALID,0,VALID,100,VALID,-0.0679233,VALID,19.8815,VALID,59,VALID,0,
2008-12-30, 01:12:00,VALID,916.506,VALID,0,VALID,100,VALID,-0.0849042,VALID,19.8718,VALID,25,VALID,0,
2008-12-30, 01:13:00,VALID,916.521,VALID,0,VALID,100,VALID,-0.0679233,VALID,19.862,VALID,23,VALID,0,
2008-12-30, 01:14:00,VALID,916.505,VALID,0,VALID,100,VALID,-0.101885,VALID,19.8388,VALID,31,VALID,0.0065407,
2008-12-30, 01:15:00,VALID,916.509,VALID,0,VALID,100,VALID,-0.0509425,VALID,19.8358,VALID,24,VALID,0.230469,
2008-12-30, 01:16:00,VALID,916.501,VALID,0,VALID,100,VALID,-0.0679233,VALID,19.8426,VALID,24,VALID,0.203303,
2008-12-30, 01:17:00,VALID,916.495,VALID,0,VALID,100,VALID,-0.0849042,VALID,19.8458,VALID,29,VALID,0.00117188,
2008-12-30, 01:18:00,VALID,916.481,VALID,0,VALID,100,VALID,-0.0679233,VALID,19.8423,VALID,20,VALID,0.171148,
2008-12-30, 01:19:00,VALID,916.459,VALID,0,VALID,100,VALID,-0.0509425,VALID,19.8588,VALID,30,VALID,0.243862,
2008-12-30, 01:20:00,VALID,916.451,VALID,0,VALID,100,VALID,-0.0849042,VALID,19.859,VALID,36,VALID,0.280362,
2008-12-30, 01:21:00,VALID,916.437,VALID,0,VALID,100,VALID,-0.0849042,VALID,19.8623,VALID,26,VALID,0.50109,
2008-12-30, 01:22:00,VALID,916.437,VALID,0,VALID,100,VALID,-0.0679233,VALID,19.8585,VALID,25,VALID,0.861737,
2008-12-30, 01:23:00,VALID,916.429,VALID,0,VALID,100,VALID,0,VALID,19.854,VALID,23,VALID,0.460938,
2008-12-30, 01:24:00,VALID,916.42,VALID,0,VALID,100,VALID,0.0339617,VALID,19.8678,VALID,32,VALID,0.521391,
2008-12-30, 01:25:00,VALID,916.403,VALID,0,VALID,100,VALID,0.0339617,VALID,19.871,VALID,32,VALID,0.34375,
2008-12-30, 01:26:00,VALID,916.407,VALID,0,VALID,100,VALID,0.0169808,VALID,19.8708,VALID,30,VALID,0.222461,
2008-12-30, 01:27:00,VALID,916.407,VALID,0,VALID,100,VALID,0.0339617,VALID,19.8805,VALID,20,VALID,0.430618,
2008-12-30, 01:28:00,VALID,916.406,VALID,0,VALID,100,VALID,0,VALID,19.874,VALID,19,VALID,0.00228659,
2008-12-30, 01:29:00,VALID,916.394,VALID,0,VALID,100,VALID,0,VALID,19.8678,VALID,27,VALID,0.182706,
2008-12-30, 01:30:00,VALID,916.399,VALID,0,VALID,100,VALID,0,VALID,19.868,VALID,24,VALID,0.556818,
2008-12-30, 01:31:00,VALID,916.396,VALID,0,VALID,100,VALID,0,VALID,19.857,VALID,26,VALID,0.0379192,
2008-12-30, 01:32:00,VALID,916.39,VALID,0,VALID,100,VALID,-0.0169808,VALID,19.8605,VALID,34,VALID,0.100632,
2008-12-30, 01:33:00,VALID,916.367,VALID,0,VALID,100,VALID,0.0169808,VALID,19.8608,VALID,23,VALID,0.573552,
2008-12-30, 01:34:00,VALID,916.339,VALID,0,VALID,100,VALID,0,VALID,19.868,VALID,35,VALID,1.40714,
2008-12-30, 01:35:00,VALID,916.332,VALID,0,VALID,100,VALID,0,VALID,19.8613,VALID,25,VALID,1.04241,
2008-12-30, 01:36:00,VALID,916.314,VALID,0,VALID,100,VALID,0.0169808,VALID,19.8505,VALID,28,VALID,0.80332,
2008-12-30, 01:37:00,VALID,916.307,VALID,0,VALID,100,VALID,-0.0339617,VALID,19.8675,VALID,27,VALID,0.738735,
2008-12-30, 01:38:00,VALID,916.292,VALID,0,VALID,100,VALID,-0.0849042,VALID,19.8818,VALID,28,VALID,0.303943,
2008-12-30, 01:39:00,VALID,916.292,VALID,0,VALID,100,VALID,-0.0679233,VALID,19.8915,VALID,359,VALID,0.0496652,
2008-12-30, 01:40:00,VALID,916.294,VALID,0,VALID,100,VALID,-0.0849042,VALID,19.8753,VALID,324,VALID,0.307292,
2008-12-30, 01:41:00,VALID,916.29,VALID,0,VALID,100,VALID,-0.118866,VALID,19.8655,VALID,37,VALID,0.00104167,
2008-12-30, 01:42:00,VALID,916.251,VALID,0,VALID,100,VALID,-0.101885,VALID,19.8595,VALID,43,VALID,0.00223214,
2008-12-30, 01:43:00,VALID,916.217,VALID,0,VALID,100,VALID,-0.101885,VALID,19.8463,VALID,353,VALID,0.438616,
2008-12-30, 01:44:00,VALID,916.211,VALID,0,VALID,100,VALID,-0.0849042,VALID,19.8328,VALID,19,VALID,0.514717,
2008-12-30, 01:45:00,VALID,916.23,VALID,0,VALID,100,VALID,-0.0679233,VALID,19.8328,VALID,240,VALID,0.155297,
2008-12-30, 01:46:00,VALID,916.194,VALID,0,VALID,100,VALID,-0.118866,VALID,19.8196,VALID,33,VALID,0.432664,
2008-12-30, 01:47:00,VALID,916.163,VALID,0,VALID,100,VALID,-0.0679233,VALID,19.8161,VALID,39,VALID,0.674419,
2008-12-30, 01:48:00,VALID,916.169,VALID,0,VALID,100,VALID,-0.0679233,VALID,19.8099,VALID,336,VALID,0.0550426,
2008-12-30, 01:49:00,VALID,916.17,VALID,0,VALID,100,VALID,-0.101885,VALID,19.8001,VALID,349,VALID,0.000363372,
2008-12-30, 01:50:00,VALID,916.149,VALID,0,VALID,100,VALID,-0.101885,VALID,19.8136,VALID,16,VALID,0.255382,
2008-12-30, 01:51:00,VALID,916.142,VALID,0,VALID,100,VALID,-0.101885,VALID,19.7969,VALID,27,VALID,0.518714,
2008-12-30, 01:52:00,VALID,916.1,VALID,0,VALID,100,VALID,-0.0849042,VALID,19.7874,VALID,40,VALID,0.368253,
2008-12-30, 01:53:00,VALID,916.091,VALID,0,VALID,100,VALID,-0.0849042,VALID,19.7974,VALID,20,VALID,0.818834,
2008-12-30, 01:54:00,VALID,916.085,VALID,0,VALID,100,VALID,-0.0169808,VALID,19.7772,VALID,19,VALID,0.830729,
2008-12-30, 01:55:00,VALID,916.083,VALID,0,VALID,100,VALID,0,VALID,19.7774,VALID,32,VALID,0.852121,
2008-12-30, 01:56:00,VALID,916.049,VALID,0,VALID,100,VALID,0,VALID,19.7679,VALID,27,VALID,0.542436,
2008-12-30, 01:57:00,VALID,916.022,VALID,0,VALID,100,VALID,-0.0169808,VALID,19.7512,VALID,20,VALID,0.0412427,
2008-12-30, 01:58:00,VALID,916.018,VALID,0,VALID,100,VALID,-0.0169808,VALID,19.7485,VALID,24,VALID,0.363095,
2008-12-30, 01:59:00,VALID,916.013,VALID,0,VALID,100,VALID,0,VALID,19.7352,VALID,32,VALID,0.188988,
2008-12-30, 02:00:00,VALID,916.042,VALID,0,VALID,100,VALID,-0.0169808,VALID,19.7288,VALID,32,VALID,0,
2008-12-30, 02:01:00,VALID,916.055,VALID,0,VALID,100,VALID,-0.0169808,VALID,19.7253,VALID,62,VALID,0.0768914,
2008-12-30, 02:02:00,VALID,916.043,VALID,0,VALID,100,VALID,-0.0509425,VALID,19.742,VALID,25,VALID,0.0933689,
2008-12-30, 02:03:00,VALID,916.02,VALID,0,VALID,100,VALID,0,VALID,19.7415,VALID,16,VALID,0.00407609,
2008-12-30, 02:04:00,VALID,915.999,VALID,0,VALID,100,VALID,-0.0509425,VALID,19.725,VALID,28,VALID,0.0886052,
2008-12-30, 02:05:00,VALID,915.99,VALID,0,VALID,100,VALID,-0.0849042,VALID,19.739,VALID,31,VALID,0.647017,
2008-12-30, 02:06:00,VALID,915.955,VALID,0,VALID,100,VALID,-0.0509425,VALID,19.7422,VALID,8,VALID,0.220703,
2008-12-30, 02:07:00,VALID,915.94,VALID,0,VALID,100,VALID,-0.0849042,VALID,19.7352,VALID,22,VALID,0.151042,
2008-12-30, 02:08:00,VALID,915.937,VALID,0,VALID,100,VALID,-0.0679233,VALID,19.7392,VALID,28,VALID,0.488889,
2008-12-30, 02:09:00,VALID,915.935,VALID,0,VALID,100,VALID,-0.0509425,VALID,19.742,VALID,26,VALID,0.0951705,
2008-12-30, 02:10:00,VALID,915.94,VALID,0,VALID,100,VALID,-0.0679233,VALID,19.7385,VALID,17,VALID,0.345203,
2008-12-30, 02:11:00,VALID,915.923,VALID,0,VALID,100,VALID,-0.0679233,VALID,19.7355,VALID,46,VALID,0.528161,
2008-12-30, 02:12:00,VALID,915.933,VALID,0,VALID,100,VALID,-0.0679233,VALID,19.7158,VALID,32,VALID,0.2996,
2008-12-30, 02:13:00,VALID,915.938,VALID,0,VALID,100,VALID,-0.0509425,VALID,19.7128,VALID,37,VALID,0.15734,
2008-12-30, 02:14:00,VALID,915.944,VALID,0,VALID,100,VALID,-0.0509425,VALID,19.7158,VALID,15,VALID,0.0814732,
2008-12-30, 02:15:00,VALID,915.942,VALID,0,VALID,100,VALID,-0.0169808,VALID,19.709,VALID,47,VALID,0.0581597,
2008-12-30, 02:16:00,VALID,915.953,VALID,0,VALID,100,VALID,-0.0339617,VALID,19.7188,VALID,19,VALID,0.00400152,
2008-12-30, 02:17:00,VALID,915.924,VALID,0,VALID,100,VALID,0.0169808,VALID,19.709,VALID,34,VALID,0.0666921,
2008-12-30, 02:18:00,VALID,915.951,VALID,0,VALID,100,VALID,0,VALID,19.7223,VALID,23,VALID,0.0838415,
2008-12-30, 02:19:00,VALID,915.961,VALID,0,VALID,100,VALID,-0.0169808,VALID,19.7028,VALID,24,VALID,0.212798,
2008-12-30, 02:20:00,VALID,915.949,VALID,0,VALID,100,VALID,0.0169808,VALID,19.7123,VALID,32,VALID,0.34375,
2008-12-30, 02:21:00,VALID,915.929,VALID,0,VALID,100,VALID,0,VALID,19.7088,VALID,27,VALID,0.772711,
2008-12-30, 02:22:00,VALID,915.919,VALID,0,VALID,100,VALID,-0.0169808,VALID,19.7218,VALID,24,VALID,0.247142,
2008-12-30, 02:23:00,VALID,915.906,VALID,0,VALID,100,VALID,-0.0169808,VALID,19.7118,VALID,35,VALID,0.277043,
2008-12-30, 02:24:00,VALID,915.9,VALID,0,VALID,100,VALID,0,VALID,19.7253,VALID,42,VALID,0.273065,
2008-12-30, 02:25:00,VALID,915.891,VALID,0,VALID,100,VALID,0,VALID,19.7185,VALID,324,VALID,0.0892079,
2008-12-30, 02:26:00,VALID,915.899,VALID,0,VALID,100,VALID,-0.0169808,VALID,19.7153,VALID,15,VALID,0.0012718,
2008-12-30, 02:27:00,VALID,915.875,VALID,0,VALID,100,VALID,0.0169808,VALID,19.712,VALID,35,VALID,0.000744048,
2008-12-30, 02:28:00,VALID,915.873,VALID,0,VALID,100,VALID,-0.0169808,VALID,19.7188,VALID,360,VALID,0.012429,
2008-12-30, 02:29:00,VALID,915.851,VALID,0,VALID,100,VALID,0,VALID,19.722,VALID,37,VALID,0.172408,
2008-12-30, 02:30:00,VALID,915.86,VALID,0,VALID,100,VALID,-0.0169808,VALID,19.7188,VALID,16,VALID,0.0398065,
2008-12-30, 02:31:00,VALID,915.872,VALID,0,VALID,100,VALID,0,VALID,19.7185,VALID,24,VALID,0.111374,
2008-12-30, 02:32:00,VALID,915.873,VALID,0,VALID,100,VALID,-0.0169808,VALID,19.7253,VALID,25,VALID,0,
2008-12-30, 02:33:00,VALID,915.895,VALID,0,VALID,100,VALID,-0.0169808,VALID,19.7255,VALID,25,VALID,0,
2008-12-30, 02:34:00,VALID,915.886,VALID,0,VALID,100,VALID,-0.0169808,VALID,19.7253,VALID,31,VALID,0,
2008-12-30, 02:35:00,VALID,915.886,VALID,0.2,VALID,100,VALID,-0.0509425,VALID,19.7188,VALID,48,VALID,0,
2008-12-30, 02:36:00,VALID,915.866,VALID,0,VALID,100,VALID,-0.0509425,VALID,19.7325,VALID,36,VALID,0,
2008-12-30, 02:37:00,VALID,915.848,VALID,0,VALID,100,VALID,-0.0679233,VALID,19.742,VALID,34,VALID,0,
2008-12-30, 02:38:00,VALID,915.815,VALID,0,VALID,100,VALID,-0.0339617,VALID,19.722,VALID,36,VALID,0.285156,
2008-12-30, 02:39:00,VALID,915.807,VALID,0,VALID,100,VALID,-0.0169808,VALID,19.7188,VALID,22,VALID,0.292969,
2008-12-30, 02:40:00,VALID,915.845,VALID,0,VALID,100,VALID,0,VALID,19.7285,VALID,24,VALID,0,
2008-12-30, 02:41:00,VALID,915.844,VALID,0,VALID,100,VALID,-0.0169808,VALID,19.7188,VALID,28,VALID,0.150923,
2008-12-30, 02:42:00,VALID,915.845,VALID,0,VALID,100,VALID,0,VALID,19.7218,VALID,27,VALID,0.00952744,
2008-12-30, 02:43:00,VALID,915.819,VALID,0,VALID,100,VALID,-0.0169808,VALID,19.7253,VALID,101,VALID,0,
2008-12-30, 02:44:00,VALID,915.796,VALID,0,VALID,100,VALID,-0.0339617,VALID,19.7253,VALID,45,VALID,0,
2008-12-30, 02:45:00,VALID,915.772,VALID,0,VALID,100,VALID,0,VALID,19.7283,VALID,32,VALID,0.102121,
2008-12-30, 02:46:00,VALID,915.784,VALID,0,VALID,100,VALID,-0.0169808,VALID,19.7215,VALID,9,VALID,0.297053,
2008-12-30, 02:47:00,VALID,915.771,VALID,0,VALID,100,VALID,0.0339617,VALID,19.7123,VALID,43,VALID,0.117369,
2008-12-30, 02:48:00,VALID,915.754,VALID,0,VALID,100,VALID,-0.0509425,VALID,19.6961,VALID,31,VALID,0.16183,
2008-12-30, 02:49:00,VALID,915.744,VALID,0,VALID,100,VALID,-0.0339617,VALID,19.6963,VALID,13,VALID,0.0010016,
2008-12-30, 02:50:00,VALID,915.764,VALID,0,VALID,100,VALID,-0.0169808,VALID,19.6961,VALID,348,VALID,0,
2008-12-30, 02:51:00,VALID,915.768,VALID,0,VALID,100,VALID,0,VALID,19.6896,VALID,23,VALID,0,
2008-12-30, 02:52:00,VALID,915.753,VALID,0,VALID,100,VALID,-0.0339617,VALID,19.7028,VALID,27,VALID,0,
2008-12-30, 02:53:00,VALID,915.72,VALID,0,VALID,100,VALID,-0.0509425,VALID,19.703,VALID,27,VALID,0,
2008-12-30, 02:54:00,VALID,915.693,VALID,0,VALID,100,VALID,-0.0679233,VALID,19.6901,VALID,27,VALID,0,
2008-12-30, 02:55:00,VALID,915.696,VALID,0,VALID,100,VALID,-0.0849042,VALID,19.7103,VALID,21,VALID,0,
2008-12-30, 02:56:00,VALID,915.679,VALID,0,VALID,100,VALID,-0.0679233,VALID,19.7065,VALID,23,VALID,0,
2008-12-30, 02:57:00,VALID,915.664,VALID,0,VALID,100,VALID,-0.101885,VALID,19.6868,VALID,26,VALID,0.015625,
2008-12-30, 02:58:00,VALID,915.642,VALID,0,VALID,100,VALID,-0.101885,VALID,19.6706,VALID,31,VALID,0.601199,
2008-12-30, 02:59:00,VALID,915.627,VALID,0,VALID,100,VALID,-0.0849042,VALID,19.6676,VALID,24,VALID,0.428085,
2008-12-30, 03:00:00,VALID,915.63,VALID,0,VALID,100,VALID,-0.0849042,VALID,19.6544,VALID,25,VALID,0.214558,
2008-12-30, 03:01:00,VALID,915.618,VALID,0,VALID,100,VALID,-0.0679233,VALID,19.6514,VALID,17,VALID,0.137463,
2008-12-30, 03:02:00,VALID,915.599,VALID,0,VALID,100,VALID,-0.0509425,VALID,19.6611,VALID,38,VALID,0.320126,
2008-12-30, 03:03:00,VALID,915.602,VALID,0,VALID,100,VALID,-0.0849042,VALID,19.6571,VALID,26,VALID,0.161156,
2008-12-30, 03:04:00,VALID,915.573,VALID,0,VALID,100,VALID,-0.0679233,VALID,19.6514,VALID,22,VALID,0.155297,
2008-12-30, 03:05:00,VALID,915.556,VALID,0,VALID,100,VALID,-0.0679233,VALID,19.6509,VALID,29,VALID,0.252544,
2008-12-30, 03:06:00,VALID,915.57,VALID,0,VALID,100,VALID,-0.0849042,VALID,19.6609,VALID,28,VALID,0.0257241,
2008-12-30, 03:07:00,VALID,915.58,VALID,0,VALID,100,VALID,-0.0169808,VALID,19.6641,VALID,27,VALID,0.042081,
2008-12-30, 03:08:00,VALID,915.569,VALID,0,VALID,100,VALID,-0.0679233,VALID,19.6676,VALID,21,VALID,0.0665015,
2008-12-30, 03:09:00,VALID,915.554,VALID,0,VALID,100,VALID,-0.0339617,VALID,19.6606,VALID,28,VALID,0.570913,
2008-12-30, 03:10:00,VALID,915.545,VALID,0,VALID,100,VALID,-0.0339617,VALID,19.6609,VALID,24,VALID,0.400343,
2008-12-30, 03:11:00,VALID,915.552,VALID,0,VALID,100,VALID,-0.0849042,VALID,19.6639,VALID,32,VALID,0.401953,
2008-12-30, 03:12:00,VALID,915.555,VALID,0,VALID,100,VALID,-0.101885,VALID,19.6544,VALID,50,VALID,0,
2008-12-30, 03:13:00,VALID,915.535,VALID,0,VALID,100,VALID,0,VALID,19.6676,VALID,42,VALID,0,
2008-12-30, 03:14:00,VALID,915.543,VALID,0,VALID,100,VALID,-0.0849042,VALID,19.6743,VALID,41,VALID,0,
2008-12-30, 03:15:00,VALID,915.529,VALID,0,VALID,100,VALID,-0.0679233,VALID,19.6576,VALID,41,VALID,0,
2008-12-30, 03:16:00,VALID,915.54,VALID,0,VALID,100,VALID,-0.0679233,VALID,19.6811,VALID,37,VALID,0.0287064,
2008-12-30, 03:17:00,VALID,915.536,VALID,0,VALID,100,VALID,-0.0849042,VALID,19.6976,VALID,42,VALID,0,
2008-12-30, 03:18:00,VALID,915.546,VALID,0,VALID,100,VALID,-0.0849042,VALID,19.7001,VALID,43,VALID,0,
2008-12-30, 03:19:00,VALID,915.57,VALID,0,VALID,100,VALID,-0.101885,VALID,19.713,VALID,43,VALID,0,
2008-12-30, 03:20:00,VALID,915.565,VALID,0,VALID,100,VALID,-0.118866,VALID,19.71,VALID,289,VALID,0,
2008-12-30, 03:21:00,VALID,915.546,VALID,0,VALID,100,VALID,-0.101885,VALID,19.7165,VALID,284,VALID,0,
2008-12-30, 03:22:00,VALID,915.491,VALID,0,VALID,100,VALID,-0.0849042,VALID,19.7133,VALID,23,VALID,0,
2008-12-30, 03:23:00,VALID,915.479,VALID,0,VALID,100,VALID,-0.0679233,VALID,19.713,VALID,15,VALID,0,
2008-12-30, 03:24:00,VALID,915.469,VALID,0,VALID,100,VALID,-0.0509425,VALID,19.6998,VALID,27,VALID,0,
2008-12-30, 03:25:00,VALID,915.448,VALID,0,VALID,100,VALID,-0.0679233,VALID,19.7001,VALID,23,VALID,0,
2008-12-30, 03:26:00,VALID,915.416,VALID,0,VALID,100,VALID,-0.0679233,VALID,19.7098,VALID,33,VALID,0,
2008-12-30, 03:27:00,VALID,915.395,VALID,0,VALID,100,VALID,-0.0849042,VALID,19.7093,VALID,27,VALID,0,
2008-12-30, 03:28:00,VALID,915.4,VALID,0,VALID,100,VALID,-0.101885,VALID,19.7293,VALID,25,VALID,0.0790777,
2008-12-30, 03:29:00,VALID,915.397,VALID,0,VALID,100,VALID,-0.0509425,VALID,19.7355,VALID,22,VALID,0.143576,
2008-12-30, 03:30:00,VALID,915.402,VALID,0,VALID,100,VALID,-0.0169808,VALID,19.7188,VALID,13,VALID,0.357812,
2008-12-30, 03:31:00,VALID,915.416,VALID,0,VALID,100,VALID,-0.0339617,VALID,19.7123,VALID,36,VALID,0.427431,
2008-12-30, 03:32:00,VALID,915.402,VALID,0,VALID,100,VALID,-0.0509425,VALID,19.7188,VALID,55,VALID,0,
2008-12-30, 03:33:00,VALID,915.388,VALID,0,VALID,100,VALID,-0.0849042,VALID,19.722,VALID,24,VALID,0.317645,
2008-12-30, 03:34:00,VALID,915.38,VALID,0,VALID,100,VALID,-0.0679233,VALID,19.7293,VALID,23,VALID,0.362537,
2008-12-30, 03:35:00,VALID,915.377,VALID,0,VALID,100,VALID,-0.101885,VALID,19.7193,VALID,11,VALID,0.449963,
2008-12-30, 03:36:00,VALID,915.368,VALID,0,VALID,100,VALID,-0.0679233,VALID,19.7198,VALID,20,VALID,0,
2008-12-30, 03:37:00,VALID,915.329,VALID,0,VALID,100,VALID,-0.0509425,VALID,19.7128,VALID,14,VALID,0.247266,
2008-12-30, 03:38:00,VALID,915.345,VALID,0,VALID,100,VALID,-0.0679233,VALID,19.7028,VALID,3,VALID,0.0980114,
2008-12-30, 03:39:00,VALID,915.367,VALID,0,VALID,100,VALID,-0.0849042,VALID,19.716,VALID,17,VALID,0.00800305,
2008-12-30, 03:40:00,VALID,915.387,VALID,0,VALID,100,VALID,-0.0849042,VALID,19.7228,VALID,24,VALID,0,
2008-12-30, 03:41:00,VALID,915.39,VALID,0,VALID,100,VALID,-0.0509425,VALID,19.7355,VALID,25,VALID,0,
2008-12-30, 03:42:00,VALID,915.398,VALID,0,VALID,100,VALID,-0.0509425,VALID,19.735,VALID,26,VALID,0,
2008-12-30, 03:43:00,VALID,915.37,VALID,0,VALID,100,VALID,-0.0339617,VALID,19.7417,VALID,26,VALID,0,
2008-12-30, 03:44:00,VALID,915.348,VALID,0,VALID,100,VALID,-0.0849042,VALID,19.7487,VALID,27,VALID,0,